• Currently

    Reported at Minneapolis, Minneapolis-St. Paul International Airport, MN
    3:53 AM CST SUN MAR 26 2017
  • 37°F3°C
  • Drizzle
    Drizzle
  • Feels Like:33°F0°CDew Point:34°F1°CHumidity:87% Winds:E 7 mph 11 kph
    Pressure:29.94 in1014 hPaVisibility:7.00 miles11263.00 meters
Time Weather Temp Dew Point
Humidity Winds Visibility Pressure Precipitation
1 hr 24 hr
Wednesday, March 15
23:53 23:53 Clear Clear 19°F-7°C 5°F-15°C 54% WNW 5 mphWNW 7 kph 10.0 miles16.1 km 30.45 in1031 hPa 0.00 in0.00 mm --
22:53 22:53 Clear Clear 19°F-7°C 5°F-15°C 54% WNW 6 mphWNW 9 kph 10.0 miles16.1 km 30.45 in1031 hPa 0.00 in0.00 mm --
21:53 21:53 Clear Clear 20°F-7°C 5°F-15°C 52% WNW 8 mphWNW 13 kph 10.0 miles16.1 km 30.45 in1031 hPa 0.00 in0.00 mm --
20:53 20:53 Clear Clear 21°F-6°C 5°F-15°C 50% WNW 8 mphWNW 13 kph 10.0 miles16.1 km 30.45 in1031 hPa 0.00 in0.00 mm --
19:53 19:53 Clear Clear 23°F-5°C 5°F-15°C 46% WNW 6 mphWNW 9 kph 10.0 miles16.1 km 30.45 in1031 hPa 0.00 in0.00 mm --
18:53 18:53 Mostly Sunny Mostly Sunny 26°F-3°C 4°F-16°C 38% NW 8 mphNW 13 kph 10.0 miles16.1 km 30.45 in1031 hPa 0.00 in0.00 mm --
17:53 17:53 Mostly Sunny Mostly Sunny 28°F-2°C 3°F-16°C 34% N 8 mphN 13 kph 10.0 miles16.1 km 30.45 in1031 hPa 0.00 in0.00 mm --
16:53 16:53 Mostly Sunny Mostly Sunny 29°F-2°C 2°F-17°C 31% N 5 mphN 7 kph 10.0 miles16.1 km 30.48 in1032 hPa 0.00 in0.00 mm --
15:53 15:53 Mostly Sunny Mostly Sunny 28°F-2°C 3°F-16°C 34% WNW 8 mphWNW 13 kph 10.0 miles16.1 km 30.48 in1032 hPa 0.00 in0.00 mm --
14:53 14:53 Sunny Sunny 28°F-2°C 3°F-16°C 34% NW 5 mphNW 7 kph 10.0 miles16.1 km 30.5 in1033 hPa 0.00 in0.00 mm --
13:53 13:53 Sunny Sunny 26°F-3°C 3°F-16°C 37% N 5 mphN 7 kph 10.0 miles16.1 km 30.5 in1033 hPa 0.00 in0.00 mm --
12:53 12:53 Sunny Sunny 24°F-4°C 2°F-17°C 38% E 9 mphE 15 kph 10.0 miles16.1 km 30.53 in1034 hPa 0.00 in0.00 mm --
11:53 11:53 Sunny Sunny 21°F-6°C 2°F-17°C 43% E 9 mphE 15 kph 10.0 miles16.1 km 30.53 in1034 hPa 0.00 in0.00 mm --
10:53 10:53 Sunny Sunny 20°F-7°C 3°F-16°C 48% E 6 mphE 9 kph 10.0 miles16.1 km 30.53 in1034 hPa 0.00 in0.00 mm --
09:53 09:53 Sunny Sunny 17°F-8°C 4°F-16°C 56% E 7 mphE 11 kph 10.0 miles16.1 km 30.5 in1033 hPa 0.00 in0.00 mm --
08:53 08:53 Mostly Sunny Mostly Sunny 14°F-10°C 4°F-16°C 64% N 5 mphN 7 kph 10.0 miles16.1 km 30.5 in1033 hPa 0.00 in0.00 mm --
07:53 07:53 Mostly Sunny Mostly Sunny 12°F-11°C 2°F-17°C 64% CalmCalm 10.0 miles16.1 km 30.5 in1033 hPa 0.00 in0.00 mm --
06:53 06:53 Mostly Clear Mostly Clear 11°F-12°C 2°F-17°C 67% NE 6 mphNE 9 kph 10.0 miles16.1 km 30.48 in1032 hPa 0.00 in0.00 mm --
05:53 05:53 Clear Clear 10°F-12°C 1°F-17°C 67% NE 7 mphNE 11 kph 10.0 miles16.1 km 30.45 in1031 hPa 0.00 in0.00 mm --
04:53 04:53 Clear Clear 11°F-12°C 1°F-17°C 64% NE 6 mphNE 9 kph 10.0 miles16.1 km 30.45 in1031 hPa 0.00 in0.00 mm --
03:53 03:53 Clear Clear 11°F-12°C 1°F-17°C 64% NE 5 mphNE 7 kph 10.0 miles16.1 km 30.42 in1030 hPa 0.00 in0.00 mm --
02:53 02:53 Clear Clear 13°F-11°C 0°F-18°C 56% NE 3 mphNE 6 kph 10.0 miles16.1 km 30.45 in1031 hPa 0.00 in0.00 mm --
01:53 01:53 Clear Clear 14°F-10°C 0°F-18°C 53% ENE 5 mphENE 7 kph 10.0 miles16.1 km 30.45 in1031 hPa 0.00 in0.00 mm --
00:53 00:53 Clear Clear 16°F-9°C 0°F-18°C 49% ENE 6 mphENE 9 kph 10.0 miles16.1 km 30.42 in1030 hPa 0.00 in0.00 mm --